RH
4 4 4 4 4 5 5 5 5 5 5 5 5 5 5 5 5 6 6 7 8 8 8 10 10 10 10 10 10 10 9 9 9 9 9 9 8 8 8 9 10 10 11 13 15 17 19 20 20 21 21 21 21 20 20 21 21 23 22 21 20 23 28 25 19 18 18 19 22 25 29 33 35 41 43 46 52 51 53 55 53 62 66 58 67 76 58
5 5 5 5 5 5 5 5 5 5 5 5 5 6 6 6 7 7 8 8 9 9 9 10 11 11 11 10 10 10 10 9 9 9 9 9 8 8 8 9 10 10 11 13 16 18 20 21 21 22 22 21 21 21 20 20 22 23 23 23 24 24 24 21 23 26 23 23 26 25 26 30 29 30 35 41 45 48 51 47 50 65 62 55 70 73 54
6 6 6 6 6 6 5 5 5 5 5 5 5 6 7 8 8 9 9 9 9 10 10 11 11 11 11 11 10 10 10 10 9 9 9 9 9 9 9 10 10 11 12 14 16 18 20 21 21 22 23 22 22 21 20 20 22 23 25 27 28 26 21 20 27 33 32 31 28 22 19 21 20 21 29 39 44 48 49 45 53 64 56 51 65 68 56
7 6 6 6 6 6 5 5 5 5 6 6 6 7 8 8 9 9 10 10 10 10 11 11 11 11 11 11 11 10 10 10 10 10 10 10 10 10 10 10 11 12 13 15 17 19 19 21 22 23 23 23 22 21 20 20 22 24 27 29 31 29 25 24 27 29 26 24 20 17 18 18 18 22 31 41 45 46 48 49 48 50 56 63 66 66 66
7 6 6 6 6 7 6 6 6 7 7 8 7 8 8 8 9 9 9 10 10 10 11 11 11 11 12 11 11 11 10 10 10 10 11 11 11 11 11 12 12 13 15 16 18 19 20 21 22 24 24 23 23 22 20 20 22 24 27 30 33 31 27 26 29 28 23 18 16 18 20 20 22 29 36 41 46 46 49 48 37 41 71 83 64 59 69
8 8 7 7 7 8 8 8 8 8 8 8 8 8 8 8 8 8 8 9 9 10 11 11 11 12 12 12 13 13 12 12 11 11 12 13 12 13 13 13 14 15 16 18 19 19 21 22 23 24 25 24 23 22 21 21 23 25 27 30 32 31 27 26 28 26 20 15 18 22 23 23 27 32 35 40 47 48 44 38 34 52 81 81 60 57 63
8 8 7 7 7 7 7 7 7 7 7 7 7 7 7 7 7 7 7 8 9 10 11 12 12 12 12 13 14 15 15 14 13 12 14 14 14 14 15 15 16 17 18 19 20 21 22 23 24 25 25 25 24 22 22 23 24 25 26 28 30 28 26 27 26 22 16 16 23 26 24 24 25 27 31 36 41 46 46 40 42 56 67 61 55 57 55
7 7 6 6 6 6 6 6 5 6 6 6 6 6 6 6 7 7 7 6 7 9 10 11 12 12 12 13 14 15 16 16 15 14 15 16 16 16 17 17 18 19 20 21 22 22 23 24 26 26 26 25 24 23 24 24 24 24 25 27 29 28 27 25 23 21 17 17 24 27 23 23 25 27 32 32 33 45 55 51 46 50 53 51 54 57 56
6 6 6 6 5 5 4 4 4 4 4 5 5 5 5 4 5 6 6 6 6 8 9 10 11 13 13 14 15 16 17 17 17 16 16 18 17 17 18 19 19 21 22 22 23 24 25 26 26 27 26 25 24 24 24 24 25 25 26 28 30 30 29 25 24 28 23 17 23 24 19 23 30 34 35 33 33 43 51 51 49 51 52 53 58 61 61
5 5 5 5 5 5 4 4 4 3 4 4 4 4 4 4 4 4 6 5 6 7 8 9 10 11 13 15 15 16 17 18 18 17 17 19 19 19 20 20 21 22 23 24 25 26 26 27 27 27 26 25 24 24 24 24 25 25 27 29 30 31 30 24 25 30 24 18 24 25 23 34 43 39 37 38 38 42 47 50 51 51 53 59 64 64 64
5 5 4 4 4 4 3 3 3 3 3 3 3 3 3 4 4 4 5 5 5 6 7 8 10 11 12 14 15 16 17 17 18 19 19 20 21 21 21 22 23 24 24 25 26 27 27 27 27 26 26 25 25 25 24 24 25 26 28 30 31 31 29 25 27 30 25 22 26 27 32 45 47 38 36 39 38 42 50 54 52 49 54 61 62 62 65
4 4 4 4 3 3 3 3 3 3 3 3 3 3 3 3 4 4 5 5 5 5 7 7 9 10 11 12 14 16 17 17 18 19 20 21 22 22 23 24 25 25 26 27 27 28 28 27 27 27 26 26 25 26 27 26 25 25 26 29 30 29 28 27 27 30 29 28 32 37 39 39 36 35 39 42 44 49 53 53 51 51 56 60 61 64 71
2 3 3 3 3 3 3 3 3 3 3 3 3 3 3 3 3 4 4 5 4 5 6 7 7 9 10 11 13 15 16 17 18 19 21 22 23 23 24 25 26 26 27 28 28 28 28 27 27 27 26 27 29 30 30 28 27 26 25 27 28 28 28 28 28 30 31 31 39 46 41 34 38 44 45 47 51 53 53 52 50 52 58 64 67 71 74
2 2 2 2 2 2 3 3 3 3 3 3 3 3 3 3 3 3 4 5 5 4 5 6 7 8 10 10 12 14 15 17 17 19 21 22 23 24 24 26 27 27 28 29 29 29 29 28 28 28 27 28 31 32 31 29 27 27 27 27 28 27 28 30 30 31 33 36 41 43 38 38 46 50 47 48 48 48 53 56 53 54 62 70 74 76 75
2 2 2 2 2 2 3 2 3 3 3 3 3 3 3 3 3 3 3 4 5 4 5 6 6 8 10 10 11 13 15 16 17 18 20 22 23 24 25 27 28 28 28 30 29 29 29 29 28 29 29 30 31 31 30 29 29 30 31 31 31 32 33 33 33 32 35 42 50 51 48 47 47 45 44 46 47 50 56 56 55 61 69 73 75 75 75
4 3 4 4 3 3 3 3 3 3 3 3 3 3 3 3 3 3 3 3 5 4 4 5 6 8 9 11 11 12 14 16 16 17 20 22 23 25 26 27 28 29 29 30 30 30 30 30 30 31 31 32 32 31 30 31 32 32 33 35 36 36 37 38 38 37 37 43 52 56 52 45 42 42 45 48 51 55 58 58 60 65 68 71 75 77 80
5 4 4 4 4 4 4 4 4 3 3 3 3 2 3 3 3 3 3 3 4 4 4 5 6 7 9 11 11 12 14 15 17 19 21 22 23 24 25 27 28 29 30 30 31 31 31 31 31 32 33 32 32 32 31 31 33 33 34 37 37 38 42 46 45 42 41 45 49 50 46 42 43 45 47 52 57 59 62 66 65 63 65 73 80 82 84
4 4 4 4 4 4 4 4 4 3 3 3 3 2 3 3 3 3 3 3 4 4 4 5 6 7 9 11 12 12 13 15 17 18 20 21 22 24 26 28 28 28 30 31 32 32 32 32 33 34 34 32 32 34 34 33 34 35 35 37 37 38 43 48 46 43 44 46 46 45 42 42 45 48 51 58 63 61 64 68 65 63 69 78 83 84 85
4 4 4 3 3 3 3 3 2 2 2 2 3 3 2 3 3 3 3 3 4 4 4 5 6 7 8 10 11 11 13 15 16 18 19 21 23 25 26 27 28 30 31 32 33 33 33 34 35 35 34 32 32 35 36 36 37 36 37 39 40 41 43 45 45 45 45 44 43 43 42 41 46 52 58 64 66 65 64 63 61 65 74 82 86 87 89
3 3 3 3 3 3 2 2 1 2 2 2 2 2 2 3 3 3 3 3 3 4 4 5 6 7 8 10 11 11 13 15 16 17 19 21 23 25 27 28 29 31 32 33 34 34 34 35 35 34 34 34 34 36 37 38 38 38 39 41 42 44 46 46 46 47 45 42 43 47 47 46 51 59 64 67 68 68 66 62 62 71 81 86 89 89 90
2 2 2 2 2 2 2 2 2 2 2 2 2 2 2 2 3 3 3 3 4 4 4 5 6 7 8 10 11 11 13 15 15 16 18 21 24 26 27 29 30 32 34 34 34 35 36 36 34 34 35 35 36 39 41 40 38 38 41 43 45 47 48 48 49 50 48 44 43 45 47 50 57 65 69 71 70 68 65 63 67 77 84 89 91 91 93
2 2 2 1 2 2 2 2 2 2 2 2 2 2 2 2 3 3 3 3 4 4 4 5 6 7 9 10 11 11 13 15 15 15 18 20 23 25 27 28 30 32 34 35 35 35 36 35 34 35 35 34 36 39 40 40 40 41 44 46 47 47 48 51 52 51 51 47 43 44 50 56 65 71 72 72 72 69 66 66 71 78 85 90 94 94 95
1 1 2 2 2 2 2 2 2 2 2 2 2 2 2 2 2 3 3 3 4 4 5 5 7 8 9 11 11 12 14 14 14 15 18 20 23 24 26 29 31 32 34 35 36 36 36 36 36 36 36 36 37 39 39 41 43 44 45 47 48 47 49 53 53 52 53 50 45 50 58 63 68 73 72 72 73 71 69 68 71 78 85 91 97 98 99
2 2 2 2 2 2 2 2 2 2 2 2 2 2 2 3 3 3 3 3 4 4 5 6 7 8 10 11 12 13 14 14 14 16 19 21 23 24 27 29 31 32 34 35 36 36 36 37 37 37 37 38 40 41 42 43 43 44 43 45 48 50 52 55 56 59 57 50 48 58 67 70 72 72 71 74 76 73 70 69 71 78 85 92 98 100 98
2 2 2 2 2 2 2 2 2 2 2 2 2 2 2 2 3 3 4 4 4 5 5 6 8 9 11 12 12 13 14 13 14 16 19 21 23 25 27 29 31 32 34 34 35 37 37 37 38 39 39 40 41 41 42 43 45 46 46 47 51 56 58 61 65 65 58 51 55 65 69 69 72 72 73 78 79 74 69 68 71 79 88 93 97 98 97
3 2 2 2 2 2 2 2 2 2 2 2 2 2 3 3 3 4 4 4 5 5 6 7 8 9 11 12 12 13 13 13 14 17 19 20 23 25 27 29 31 32 33 34 35 36 37 38 40 40 41 42 43 43 43 45 47 47 47 50 56 60 64 70 72 65 56 55 64 72 70 67 70 74 79 81 78 72 67 67 72 84 93 96 96 95 95
3 3 2 2 2 2 2 2 2 2 2 3 3 3 3 3 3 4 4 4 5 6 7 7 9 10 12 13 13 13 12 13 14 17 19 20 22 25 27 29 30 32 33 34 35 36 38 39 40 41 42 43 44 44 45 45 44 43 45 49 57 64 69 70 66 60 60 66 74 78 75 73 74 77 79 78 74 68 65 68 78 91 97 99 99 98 98
2 2 2 2 2 2 2 2 3 3 2 3 3 3 4 4 4 5 5 5 6 7 7 8 10 11 12 13 13 12 12 12 14 17 18 19 22 24 26 28 30 32 33 34 36 37 38 39 40 41 42 44 45 46 45 44 42 44 48 53 63 70 69 61 58 62 69 73 74 75 76 77 78 78 75 71 67 64 65 74 87 96 98 99 101 102 102
2 2 2 2 3 3 3 3 3 3 3 4 4 4 4 5 5 6 6 6 6 7 8 9 10 11 13 13 12 12 11 12 14 16 17 19 22 24 25 27 29 32 34 35 37 38 38 40 42 42 43 46 46 45 44 44 45 47 51 57 62 63 56 54 61 69 70 70 74 78 79 77 75 72 69 65 63 64 72 83 92 95 96 99 102 102 101
3 3 3 3 3 3 3 3 3 4 4 5 5 5 5 6 7 7 7 7 7 8 9 10 10 11 13 12 12 12 11 12 14 16 16 18 21 23 24 26 29 32 34 36 37 38 40 41 43 44 45 46 47 46 45 44 45 50 53 54 53 51 52 58 66 69 70 76 82 81 77 72 67 64 63 64 66 73 82 89 92 94 95 99 102 102 101
4 3 3 4 3 3 4 4 5 6 6 7 7 7 7 7 8 8 8 7 8 9 10 10 11 12 12 12 12 11 11 12 14 15 16 18 20 22 23 25 28 32 35 36 38 40 42 43 45 46 47 48 48 48 47 46 48 53 53 50 50 54 58 64 69 75 82 86 82 72 66 66 63 62 65 70 76 83 88 89 91 93 97 101 103 102 101
5 5 6 6 6 7 8 9 11 11 11 11 10 9 10 10 10 9 8 8 9 10 11 11 12 12 12 12 12 11 12 13 14 14 15 17 20 22 22 23 27 32 35 36 39 41 43 46 47 47 48 50 51 50 50 52 54 54 53 53 56 60 65 72 81 88 89 85 76 68 64 62 61 65 71 77 82 86 88 89 92 95 97 101 102 101 102
14 14 15 15 16 17 18 18 19 18 17 16 14 13 13 12 11 9 9 9 10 11 11 12 12 12 11 11 11 11 12 13 13 13 14 16 19 21 22 22 26 31 34 36 40 43 45 48 49 49 51 53 53 53 55 56 55 55 58 61 63 66 75 86 92 89 83 77 75 72 66 62 64 70 76 80 83 85 88 91 95 96 98 100 100 99 96
22 22 22 22 23 24 24 24 24 23 22 20 17 16 15 13 10 10 9 10 11 12 12 12 13 12 11 11 11 12 12 13 13 13 13 16 19 21 21 22 26 30 33 37 40 44 47 49 50 51 54 54 55 57 58 58 60 65 66 64 66 75 87 92 89 82 75 71 70 68 64 63 68 75 79 81 83 86 90 94 96 97 97 94 84 71 60
25 24 25 25 25 26 26 26 25 24 23 21 18 17 15 12 10 10 11 11 12 12 12 13 13 12 12 11 11 12 13 13 13 12 13 16 19 20 20 21 24 28 33 37 40 44 48 50 52 54 56 56 58 61 61 63 70 72 65 63 74 88 93 90 85 78 72 68 66 64 64 68 75 80 81 82 85 88 91 92 91 91 87 73 50 31 22
28 27 26 27 27 28 28 27 26 25 23 20 18 16 13 11 11 12 12 12 13 13 13 13 13 12 12 11 11 12 14 13 13 12 13 15 19 20 20 20 23 27 32 37 40 44 48 52 54 57 58 59 61 63 67 73 75 67 61 72 88 94 93 91 85 75 68 66 65 64 66 72 76 77 78 81 84 88 89 85 79 73 61 42 24 16 15
34 31 29 27 28 29 29 28 27 25 22 19 17 15 12 12 12 13 13 13 13 13 14 14 13 13 12 12 12 13 14 14 13 12 13 16 19 20 20 20 22 26 30 35 39 44 49 54 57 59 60 62 63 67 75 79 71 61 67 85 95 94 92 91 83 73 67 65 64 66 70 73 74 75 78 81 83 87 88 76 59 45 33 20 14 16 19
37 35 32 29 28 29 30 28 27 24 21 18 16 14 13 14 14 14 14 14 13 13 14 14 13 13 12 12 12 13 14 14 13 12 13 17 20 20 20 20 22 25 28 33 38 43 48 54 59 61 62 64 67 73 79 75 64 63 79 93 97 96 94 88 81 76 69 62 63 69 73 75 77 79 81 82 84 86 78 54 29 17 15 15 16 19 21
39 38 36 31 28 29 30 28 25 23 20 17 17 16 15 15 15 15 15 14 13 14 14 14 13 12 12 11 12 13 14 14 13 12 14 18 20 20 20 20 22 24 27 31 37 43 49 55 59 62 64 66 72 79 80 70 62 71 88 97 98 98 93 83 78 75 67 60 65 72 75 78 81 83 85 87 82 68 46 24 11 11 14 16 19 22 23
38 40 39 34 29 29 29 27 25 24 21 18 18 19 17 17 17 16 15 15 14 14 14 14 13 12 12 12 12 13 15 15 14 13 15 18 20 20 19 19 22 24 26 30 36 43 49 55 60 63 65 69 77 82 75 65 66 80 93 97 98 97 88 79 74 69 64 65 71 75 77 81 82 82 88 87 67 38 17 10 11 14 17 18 22 25 25
37 39 40 37 31 29 29 27 26 25 22 20 21 21 19 18 18 16 15 15 15 14 14 14 13 12 12 13 13 14 15 15 15 14 16 18 20 19 18 19 22 24 25 29 35 42 49 56 61 64 67 73 80 80 70 65 74 87 94 97 98 92 82 74 69 65 66 71 76 78 79 80 80 83 85 69 39 16 10 12 13 15 18 21 24 25 25
36 38 40 39 33 28 27 28 27 25 23 23 23 23 21 20 19 17 16 16 15 14 14 14 13 12 13 14 14 14 15 16 15 16 17 18 19 19 18 19 20 22 24 27 33 40 50 57 62 65 70 76 79 74 68 71 82 91 95 98 96 87 77 69 66 67 71 75 78 80 81 79 80 81 69 41 15 7 11 13 14 17 20 22 24 24 24
36 37 40 41 36 29 26 27 27 25 24 25 25 24 22 21 19 18 17 16 15 15 14 14 13 13 14 15 15 15 16 16 17 17 18 19 18 18 19 19 20 22 23 26 31 41 50 57 62 67 72 76 76 71 71 79 88 93 96 98 93 82 72 67 66 69 74 77 79 81 79 78 77 66 42 17 7 9 12 13 16 19 20 20 22 23 23
36 38 41 42 38 30 26 26 26 24 24 25 25 23 22 21 20 19 18 18 16 15 15 15 14 14 14 16 17 16 16 17 17 19 20 19 18 18 19 20 21 21 22 25 31 41 50 57 63 69 73 74 73 72 77 85 90 93 96 96 88 75 67 66 69 71 74 77 79 79 76 74 66 45 20 8 9 12 12 14 17 18 18 19 19 20 22
37 39 42 42 39 34 29 26 26 26 25 26 25 25 24 23 23 23 22 21 20 19 18 17 16 15 16 17 18 17 16 17 18 20 20 19 18 19 20 21 21 21 21 25 31 40 48 56 62 68 71 71 72 76 83 88 91 94 95 91 80 68 65 67 71 72 75 78 79 77 74 69 53 28 9 7 11 12 14 17 19 18 17 17 17 19 21
39 41 42 42 40 38 35 32 31 31 31 31 31 31 31 32 32 31 29 27 26 25 23 21 19 18 19 19 19 18 17 18 20 21 20 19 18 19 20 21 21 21 22 26 31 38 46 54 60 65 69 71 74 81 87 89 91 94 93 84 71 65 66 69 71 73 76 79 77 74 70 60 38 15 6 9 12 12 15 19 19 18 17 17 18 20 20
41 43 43 42 42 42 40 38 38 39 39 39 40 41 41 42 40 38 35 34 33 30 28 25 22 21 21 21 20 19 20 21 22 22 20 19 18 19 20 21 21 21 23 25 29 36 45 51 57 63 69 72 76 83 87 89 91 93 88 77 67 64 67 70 71 73 77 77 74 70 64 47 24 8 7 11 12 13 17 18 17 16 16 16 18 19 18
42 43 44 44 45 45 43 43 44 45 44 45 46 46 46 46 44 41 39 38 36 33 30 27 24 23 23 23 22 22 23 24 24 22 20 19 18 19 20 21 20 22 23 24 28 35 44 50 56 63 69 74 78 84 87 89 90 89 81 70 64 65 68 70 71 74 77 76 72 67 56 35 14 6 8 11 11 13 17 17 15 15 15 16 17 18 18
42 44 45 46 46 46 45 46 46 46 46 46 47 47 46 45 44 42 40 38 36 33 30 28 26 25 24 25 25 25 25 26 24 22 20 19 18 19 20 20 21 22 21 22 27 36 43 48 55 63 69 74 79 84 87 88 89 84 75 66 64 67 69 70 72 76 78 76 71 63 47 24 8 6 9 10 11 15 17 16 15 15 15 16 17 17 18
42 43 44 45 45 44 45 45 45 45 45 45 44 44 44 43 41 40 38 37 35 32 30 29 29 28 28 29 28 27 27 28 26 22 19 19 19 19 19 20 21 21 19 22 29 37 41 45 54 63 69 74 79 83 85 87 85 78 69 64 65 68 69 70 73 78 78 74 68 57 37 16 6 8 10 10 12 15 16 15 15 14 15 16 17 17 18
40 41 41 42 43 43 44 44 43 43 43 43 42 42 41 40 39 38 37 36 34 33 32 32 32 31 31 31 31 30 30 31 29 25 21 20 20 20 19 19 20 19 19 25 32 36 38 43 52 60 67 73 78 81 84 84 80 72 65 64 66 68 69 71 75 78 77 72 64 50 28 10 6 9 11 10 12 14 13 13 13 14 14 16 16 17 18
40 40 41 42 42 42 42 43 43 42 42 41 41 41 40 40 40 39 38 37 36 36 36 36 36 34 34 34 35 34 33 33 32 29 24 22 22 22 21 21 21 20 22 27 32 33 35 41 50 59 66 71 75 79 81 80 74 67 64 65 67 68 69 72 77 78 74 69 60 42 20 7 7 10 10 10 12 12 12 12 13 14 15 17 17 17 19
Wind_Speed
19 18 18 17 17 16 16 16 17 17 17 17 16 14 13 13 14 15 13 13 14 12 13 16 15 15 16 14 13 12 10 9 9 10 10 10 10 11 12 14 14 14 16 16 17 20 18 15 18 20 19 20 22 22 21 19 19 18 16 15 17 16 14 18 25 23 18 16 15 15 14 15 21 22 20 19 18 19 19 16 20 19 16 21 15 13 30
18 17 16 16 16 16 16 16 15 15 16 16 15 14 13 15 16 16 15 15 15 15 16 17 16 16 16 14 13 12 11 10 9 10 11 11 11 12 13 14 15 16 16 17 18 19 17 18 21 21 20 23 24 22 21 20 19 19 18 17 17 14 11 17 21 18 16 15 14 17 21 22 25 27 26 26 24 24 25 23 21 16 16 20 11 14 37
17 16 16 16 16 16 16 16 15 14 14 14 14 13 14 16 18 18 17 15 15 17 19 17 16 17 16 14 13 11 10 10 10 10 11 13 13 13 13 15 16 17 17 17 18 18 18 20 22 22 23 24 24 23 22 21 21 21 20 19 19 16 14 14 12 7 8 11 13 21 29 28 27 29 30 29 27 27 26 22 16 14 22 27 20 25 47
17 17 17 17 17 16 16 16 16 16 16 15 14 14 14 14 17 18 18 17 17 19 20 17 16 17 15 14 14 12 11 11 11 11 12 13 14 14 14 15 17 17 18 19 19 20 21 22 22 23 24 24 24 24 23 23 22 21 21 21 19 18 17 15 13 12 14 19 25 28 26 26 28 29 30 30 29 29 26 19 17 22 29 33 33 35 48
19 19 19 19 19 19 19 19 18 18 19 18 18 17 15 15 16 16 16 16 17 19 19 17 16 16 15 14 14 13 12 12 12 12 13 14 15 15 15 16 17 18 19 21 21 22 23 23 23 25 25 25 25 25 24 23 22 21 21 21 19 20 21 19 16 18 20 27 32 27 21 24 29 28 29 30 29 30 25 19 23 28 24 29 41 44 45
23 23 23 22 23 23 23 23 23 22 22 22 21 20 19 19 19 18 17 16 17 18 18 17 17 16 15 15 14 14 14 13 13 13 14 14 15 16 16 17 18 19 20 22 23 23 24 24 25 25 26 27 26 25 24 23 22 21 21 21 20 21 23 21 19 21 25 29 29 23 21 26 29 28 29 29 29 30 25 21 27 29 22 30 46 48 47
27 27 28 27 27 27 27 27 26 25 25 24 22 21 20 20 20 20 19 18 18 18 17 17 16 16 15 15 15 15 14 14 14 13 14 15 15 16 17 18 18 19 21 22 24 24 25 26 27 27 27 27 26 26 25 23 22 22 21 21 21 21 22 21 21 27 31 30 24 20 24 29 31 32 30 29 29 28 23 23 29 29 28 37 45 47 50
29 29 29 29 29 29 28 28 27 26 25 24 23 22 21 21 20 19 18 19 19 18 17 16 15 15 15 14 15 15 14 14 14 14 15 16 16 17 18 19 19 20 21 23 24 24 24 25 28 28 28 27 26 25 24 24 23 23 22 22 22 21 22 23 24 31 34 28 21 22 28 31 33 29 24 24 25 23 20 23 28 31 38 45 46 47 50
29 28 27 27 27 27 26 26 26 26 25 24 23 23 22 21 21 20 18 19 19 17 17 16 15 15 15 14 14 15 15 15 15 15 16 16 17 18 19 19 20 21 21 23 24 24 23 24 27 27 27 26 25 23 24 24 24 24 23 22 23 22 23 25 26 28 32 29 24 28 34 33 30 23 18 19 21 22 22 23 27 33 42 48 46 45 46
26 26 25 24 24 24 24 24 24 24 24 24 23 23 22 21 22 21 19 18 18 17 16 16 15 15 14 14 14 15 15 16 16 16 16 17 18 19 20 20 21 22 24 25 25 24 25 25 26 26 25 25 24 23 24 24 23 24 24 23 24 23 23 26 25 24 30 31 28 32 33 24 18 18 20 21 21 23 25 26 31 40 45 44 42 44 45
23 23 23 22 22 22 22 22 22 22 23 23 23 23 22 21 21 21 19 19 18 17 16 16 15 15 14 13 14 14 15 16 17 17 17 18 19 19 20 21 22 24 25 26 26 25 26 27 27 26 25 24 24 23 23 22 22 23 23 23 24 23 23 26 23 23 30 33 31 32 23 10 14 24 25 25 25 26 27 30 40 50 49 42 41 44 45
21 20 20 20 20 20 20 20 20 20 21 21 22 22 21 21 20 20 19 18 19 17 16 15 15 14 14 14 13 14 15 16 17 17 18 18 19 20 21 22 24 25 25 26 26 27 28 28 27 26 25 24 24 22 21 21 21 21 22 23 23 24 24 24 23 24 28 30 27 20 13 14 26 31 27 26 26 26 30 39 48 53 48 41 41 43 44
20 19 19 19 18 18 18 18 19 19 19 20 21 21 20 19 20 19 18 17 18 18 15 15 15 14 14 14 14 13 14 16 17 18 18 18 19 20 22 23 25 26 26 26 27 28 29 30 29 28 28 26 24 23 21 21 21 20 21 21 21 23 23 23 25 24 24 24 18 11 15 26 29 27 25 25 25 28 36 48 57 54 43 36 38 41 46
21 20 19 19 18 18 18 17 17 17 17 18 19 20 19 18 18 19 18 16 17 18 16 14 14 14 14 15 15 14 15 16 17 18 18 19 20 21 23 25 26 26 26 27 28 28 29 30 30 30 29 27 25 25 24 24 23 22 21 21 20 21 22 24 24 19 18 22 22 22 25 24 18 20 23 24 28 35 41 51 59 51 35 30 36 44 51
21 21 20 19 18 18 17 17 16 16 16 16 18 18 18 18 17 17 17 16 16 17 16 14 13 14 14 14 15 15 15 16 17 18 18 19 21 22 24 26 26 26 27 28 28 28 27 27 28 26 24 23 23 25 26 27 26 24 21 20 20 22 23 23 21 18 19 21 21 19 17 12 12 20 26 29 35 41 45 52 54 40 29 35 46 51 54
19 19 18 18 17 17 17 16 16 15 15 15 16 17 17 18 17 16 17 17 16 16 16 14 13 14 14 14 16 16 16 17 18 19 19 20 22 23 25 26 26 25 27 28 28 27 26 26 25 22 20 21 22 24 26 26 25 24 23 22 23 25 25 23 21 21 20 18 14 11 10 12 18 27 33 36 42 48 48 43 37 33 37 48 53 53 53
15 16 15 15 15 15 15 15 14 15 15 15 15 16 16 17 17 16 17 17 17 16 16 15 13 14 13 14 16 17 17 19 19 20 21 21 22 24 25 26 26 27 28 28 27 27 26 25 24 22 22 22 22 23 23 22 22 24 26 27 28 28 25 23 22 21 20 17 16 15 15 19 25 32 39 44 48 49 38 25 29 44 53 53 52 52 53
13 13 13 14 14 14 14 14 14 14 15 16 16 16 16 16 16 16 17 17 17 16 16 15 14 14 13 13 16 18 18 19 20 20 21 22 23 25 26 26 27 28 29 28 26 26 26 24 22 23 24 24 22 20 21 22 23 25 27 29 29 28 24 22 22 22 20 17 18 22 23 24 30 38 45 48 49 44 32 28 41 55 55 51 52 54 53
12 12 13 14 14 15 14 14 14 14 16 16 16 16 16 16 16 16 16 17 17 16 16 15 14 14 14 14 16 18 19 20 20 21 22 23 24 26 27 26 27 28 28 27 26 26 26 24 22 23 24 24 23 22 23 25 27 28 28 28 28 27 25 23 21 21 20 18 20 23 24 27 36 44 47 48 45 41 40 47 54 54 52 53 54 53 52
12 13 14 14 15 15 14 14 15 16 17 17 16 16 15 16 16 16 16 17 17 17 16 15 14 14 14 14 16 18 19 19 20 21 22 23 24 26 27 27 29 30 29 28 27 26 25 25 25 24 23 24 25 26 26 28 29 29 27 27 26 25 24 23 22 21 21 19 15 14 19 31 43 47 47 46 43 43 48 53 53 50 51 53 53 53 53
13 13 14 14 14 14 15 15 17 18 18 17 16 15 15 16 16 16 16 16 17 17 16 15 14 14 14 14 16 18 18 19 20 21 22 23 25 26 27 28 29 29 27 27 26 24 24 25 26 24 23 25 26 25 26 30 32 30 27 27 26 25 24 26 26 24 23 20 17 19 30 42 48 48 48 49 49 49 51 51 50 51 52 52 54 55 53
12 13 13 13 14 15 16 17 19 19 18 17 16 15 16 15 15 16 16 16 17 17 16 15 14 14 14 14 16 18 18 19 20 21 22 23 24 25 26 27 27 26 25 25 24 23 23 24 25 25 25 26 26 25 26 29 30 30 29 28 28 29 29 29 29 28 26 26 28 35 42 46 48 50 52 53 54 54 53 51 51 52 52 52 53 54 52
11 12 13 14 16 17 18 19 19 18 17 16 16 16 15 15 15 15 16 17 18 16 15 15 14 14 14 14 16 18 18 19 21 21 23 24 25 25 26 26 26 25 24 24 24 23 22 23 23 24 24 24 25 27 27 27 27 29 32 31 31 33 33 30 30 32 31 32 35 39 44 48 52 54 55 55 55 55 53 51 51 51 52 52 52 53 54
12 13 15 16 18 18 19 19 18 17 16 16 15 15 14 14 15 16 16 17 17 16 15 14 14 14 14 14 16 18 18 20 21 22 24 25 26 26 27 27 27 26 25 24 24 23 23 23 22 22 22 22 24 25 25 25 27 29 32 32 32 33 33 32 32 33 33 36 40 42 46 52 55 55 56 56 56 54 51 50 50 51 53 53 53 53 54
14 15 17 18 19 19 19 18 17 16 15 14 14 14 14 14 15 16 17 17 17 15 15 14 14 14 14 15 17 18 19 21 22 23 24 26 26 27 27 27 27 27 26 25 25 23 23 22 22 22 23 23 24 24 24 25 28 30 31 32 32 32 32 33 34 33 34 40 44 46 51 54 54 54 56 56 54 52 50 49 50 52 53 54 54 54 54
16 17 17 19 19 19 18 17 15 14 14 13 13 14 14 15 16 16 17 17 16 15 14 14 14 14 14 15 17 18 20 22 23 23 25 26 26 27 27 27 27 27 26 26 25 24 23 22 21 22 22 23 24 25 25 25 26 27 27 28 29 30 32 32 33 35 38 43 47 51 57 58 56 54 55 54 52 51 50 50 51 53 54 55 55 54 54
17 17 18 19 18 17 16 15 13 13 13 13 13 14 14 15 16 16 17 17 15 14 14 14 14 14 14 16 18 19 20 23 23 24 25 26 26 26 27 27 27 27 26 25 24 23 22 22 22 22 22 23 25 26 25 24 24 25 26 28 28 30 32 32 33 38 43 46 48 51 56 59 58 56 54 53 50 49 49 52 53 55 55 56 57 57 57
17 18 18 17 16 15 14 13 13 13 13 13 14 15 15 16 17 17 17 16 15 14 13 13 14 14 14 16 18 19 21 23 23 24 25 26 26 26 27 27 27 26 26 25 25 24 23 23 23 23 23 25 26 27 26 25 26 27 28 29 30 30 30 32 36 42 46 48 49 51 54 56 57 55 53 52 49 49 51 53 53 54 55 56 57 57 58
16 16 15 14 13 12 12 13 13 13 13 14 15 16 16 16 16 16 16 15 14 14 13 13 15 14 13 16 18 19 22 23 23 24 25 25 26 26 27 27 27 26 26 25 24 23 24 24 23 23 24 25 27 27 26 26 27 27 28 29 29 27 29 35 43 48 50 50 51 51 52 53 53 53 52 50 49 49 52 53 53 54 56 56 57 57 57
15 14 13 13 12 12 12 13 13 14 14 15 16 15 15 16 15 16 15 14 13 14 13 14 15 14 14 16 19 20 22 24 24 24 25 25 25 26 27 27 26 25 25 25 23 23 24 24 23 23 24 25 26 26 26 27 27 28 29 29 29 29 35 42 47 48 49 50 50 50 49 50 51 51 51 49 49 50 51 53 54 55 56 57 57 56 57
13 13 13 13 13 13 14 14 15 15 15 15 15 15 15 15 15 15 14 13 13 14 13 14 15 15 15 17 19 21 23 24 24 25 25 25 26 26 27 27 26 25 24 24 23 23 24 24 24 23 23 24 25 25 25 27 29 30 30 31 32 37 42 46 47 47 48 49 50 50 49 49 50 51 51 51 50 51 52 54 56 56 57 57 57 57 58
13 13 13 13 13 14 14 15 15 15 14 14 14 14 15 15 14 14 13 13 13 14 13 14 15 16 16 18 20 22 23 25 25 25 25 26 26 26 27 26 25 24 24 23 23 24 25 25 24 23 23 25 26 24 25 28 30 31 31 34 39 44 46 47 47 48 48 48 49 51 52 51 50 51 52 52 52 53 54 56 57 57 58 57 57 58 59
12 12 12 12 13 13 13 13 13 13 13 13 13 13 14 13 13 12 12 13 13 13 13 14 16 17 17 18 20 22 24 25 25 26 26 27 26 25 26 26 24 24 24 23 23 24 26 25 24 23 24 26 26 25 27 30 31 32 35 40 44 47 48 48 49 49 48 47 47 49 51 52 51 50 52 54 55 55 56 57 58 58 59 59 60 60 61
12 12 12 12 12 13 13 13 13 13 13 13 12 12 12 12 11 11 12 13 13 13 13 14 16 18 18 20 21 23 25 26 26 26 27 27 26 25 26 25 24 24 24 23 23 25 26 25 24 24 26 27 28 28 30 31 32 36 40 43 44 47 49 50 50 49 48 47 47 46 48 50 51 52 54 55 56 56 57 58 58 59 60 61 61 61 61
12 13 13 13 14 13 13 13 13 12 12 12 12 12 11 10 11 11 12 13 13 13 13 15 17 19 20 22 23 25 26 27 27 27 27 26 25 25 26 25 24 24 23 22 23 26 27 26 25 26 27 28 30 31 32 34 37 41 42 43 45 49 51 51 51 50 49 48 48 48 49 50 52 54 55 56 56 57 59 60 60 60 61 62 61 61 60
14 14 15 15 15 15 14 13 12 12 11 11 11 10 9 9 11 11 12 12 13 13 14 16 18 20 23 24 25 26 27 27 27 27 27 26 25 25 25 25 24 23 23 21 23 27 28 26 25 26 27 28 30 31 34 38 42 43 42 44 48 51 51 51 51 51 50 49 48 50 51 52 54 56 57 57 58 59 61 62 62 62 62 61 60 59 60
16 16 16 16 16 15 15 13 12 11 11 10 10 9 9 10 11 11 12 13 13 13 15 17 19 21 23 25 26 27 28 28 28 28 27 26 25 25 26 25 24 24 22 20 23 27 29 26 25 26 28 29 30 32 37 42 43 43 44 47 51 51 51 51 50 50 50 50 50 51 53 55 56 57 58 59 61 61 62 63 62 61 60 59 59 59 60
16 16 17 17 16 16 15 13 12 11 10 9 9 9 10 10 11 11 12 13 13 14 16 18 21 23 24 26 28 29 29 29 28 28 27 26 25 26 27 25 25 25 23 21 24 29 30 27 26 28 29 30 32 36 42 44 43 44 47 50 52 52 52 50 49 49 50 51 51 52 54 56 57 57 58 60 62 62 62 61 60 58 58 57 58 59 60
17 16 17 17 17 16 15 13 11 10 9 9 9 10 10 10 11 12 13 14 15 16 18 20 23 25 26 27 29 30 30 29 28 28 27 26 26 27 27 25 25 25 22 22 27 31 30 28 28 29 31 33 36 41 45 45 44 45 49 51 51 51 50 49 47 47 47 47 48 50 52 54 56 56 58 61 63 63 61 59 57 56 57 57 58 60 61
17 16 16 16 16 16 14 12 10 10 9 9 9 10 10 11 12 13 14 15 17 18 21 23 25 26 27 28 29 30 30 29 29 28 26 25 26 27 25 24 25 25 22 23 28 30 29 29 29 30 33 37 41 44 45 44 44 47 49 50 51 51 49 47 46 45 45 46 47 49 50 52 54 55 58 61 62 61 59 57 56 56 57 59 59 60 61
17 16 16 15 15 15 13 11 10 10 9 8 9 11 11 11 13 15 16 17 19 21 23 25 26 27 28 29 30 30 29 29 29 28 26 25 27 27 24 23 24 23 21 24 28 28 28 29 30 31 36 41 43 45 45 44 45 47 49 51 52 51 48 46 45 45 46 47 49 50 51 52 54 57 59 60 60 58 56 55 56 57 58 59 60 61 61
17 16 15 14 14 14 12 10 11 10 9 8 10 12 12 13 15 16 17 19 21 22 24 25 27 28 29 29 30 30 29 29 29 28 25 25 27 26 23 23 23 22 23 26 27 27 28 29 30 34 40 44 44 44 45 45 46 48 50 52 52 50 47 46 46 45 46 48 50 51 53 54 56 58 59 59 57 54 53 54 56 58 59 59 60 61 61
16 15 14 13 12 12 11 10 10 10 9 9 12 13 14 15 17 18 19 20 22 23 24 26 27 28 29 30 29 29 29 29 29 27 26 26 27 25 23 23 23 24 24 25 25 27 29 30 33 38 44 45 44 44 45 45 47 48 50 52 51 48 46 46 46 46 47 49 50 52 54 55 57 59 58 56 54 52 53 54 56 57 59 60 60 60 61
15 13 12 11 11 11 10 9 10 10 10 12 14 16 16 18 19 20 20 21 22 23 25 26 27 28 29 29 29 28 28 28 28 26 25 26 26 24 23 24 25 25 25 25 25 27 30 33 38 43 45 44 44 44 45 46 47 49 51 51 49 47 45 46 47 48 49 50 51 53 55 57 59 58 56 53 52 52 54 55 57 58 59 59 59 60 60
13 11 10 9 10 10 10 9 10 12 13 14 16 18 18 19 20 21 22 22 23 24 25 26 27 28 29 29 28 28 28 27 26 25 25 26 25 24 24 25 25 25 24 25 27 30 33 37 42 45 45 44 45 45 45 46 48 49 51 50 48 46 46 47 47 49 50 51 53 55 57 59 59 57 54 51 51 53 54 56 58 59 59 59 59 60 60
12 10 10 9 9 9 10 10 11 13 15 16 18 18 19 20 21 21 22 23 23 24 25 26 27 28 28 28 28 28 27 26 25 24 25 26 25 24 25 26 25 25 25 27 30 33 37 42 44 45 45 45 45 45 45 46 47 49 50 49 47 46 46 47 48 49 51 52 54 56 58 59 59 56 52 51 51 53 55 56 57 58 58 59 60 60 61
12 10 10 9 9 9 10 12 13 14 16 17 18 19 20 20 21 22 22 22 23 24 25 26 27 28 28 27 27 27 27 26 25 25 25 26 26 25 24 24 24 25 27 30 33 37 40 43 45 45 45 45 45 45 45 46 47 48 48 47 46 46 46 47 48 50 52 53 55 57 59 59 57 54 52 51 52 54 55 56 56 57 58 59 60 60 61
12 10 10 9 9 10 12 13 14 15 17 18 19 19 20 20 21 21 22 22 23 24 25 26 27 27 27 27 27 26 26 25 25 25 26 26 26 24 23 23 25 27 29 32 36 40 42 44 45 45 44 45 45 45 45 46 47 48 47 45 45 46 47 48 49 51 52 53 56 58 59 58 56 53 51 52 53 54 55 55 55 56 57 58 60 61 61
12 11 10 10 10 11 13 14 15 16 17 18 19 19 20 20 20 21 21 22 23 24 25 26 27 27 27 27 27 26 25 25 26 26 26 25 25 24 25 26 28 31 33 36 38 41 43 44 44 44 44 44 44 44 44 46 47 46 45 45 45 46 47 48 50 51 52 54 56 58 58 57 54 52 51 52 53 55 55 55 55 55 57 58 60 61 62
13 12 11 11 12 13 14 15 16 16 17 17 18 19 19 19 20 20 21 21 22 23 24 26 27 27 27 27 26 25 25 26 26 25 25 25 25 26 27 29 31 33 36 37 38 40 42 44 44 43 44 44 43 43 44 46 46 45 44 44 45 45 46 48 49 51 52 54 57 58 57 55 53 51 52 53 54 55 54 54 54 55 56 58 59 61 62
14 13 13 12 13 14 14 15 16 16 16 16 17 17 18 19 19 20 20 21 22 23 25 26 27 27 27 27 26 25 26 27 27 26 25 26 26 28 30 31 33 34 36 36 37 40 42 43 43 43 44 44 43 43 44 45 44 43 43 43 44 45 46 48 49 50 52 55 57 57 56 53 51 51 51 52 53 54 54 54 54 55 56 57 59 60 62
15 14 14 13 14 14 14 15 15 15 15 16 16 16 17 18 19 19 21 21 22 24 25 25 26 26 26 26 26 27 27 28 28 27 27 27 28 29 31 32 34 35 36 36 38 40 42 42 43 43 44 44 43 43 43 43 42 42 42 43 44 45 46 48 49 50 52 55 57 57 55 52 50 50 50 52 53 55 55 56 56 56 57 58 59 60 62
Wind_Direction
99 99 100 99 98 97 96 94 92 89 87 82 78 78 81 81 78 76 75 76 74 73 74 74 73 75 77 76 72 70 64 55 47 36 28 20 11 7 4 1 0 358 355 353 349 347 346 344 341 336 333 333 331 327 325 320 316 314 311 313 319 321 322 319 319 321 315 309 315 318 313 310 316 318 310 303 304 306 308 302 295 297 295 299 297 270 292
100 100 100 100 99 97 95 94 92 91 89 84 79 76 77 79 78 76 74 75 79 80 76 74 72 72 73 72 69 64 57 48 38 29 23 16 11 5 1 0 359 356 354 351 349 347 345 341 340 339 334 332 332 329 325 321 316 314 311 312 317 320 322 322 322 326 327 325 330 328 322 318 316 312 305 301 301 302 305 305 300 293 295 303 297 274 296
100 99 98 98 97 97 96 95 93 89 86 86 84 79 75 76 79 81 79 78 80 80 77 73 69 68 69 67 64 58 50 42 32 24 18 13 10 4 360 358 355 353 351 348 347 346 343 340 338 338 335 332 332 329 325 321 316 313 311 309 311 312 315 319 313 306 319 316 314 318 314 309 308 305 300 298 298 298 300 301 292 290 303 303 286 282 300
97 96 96 95 93 92 91 90 88 85 81 81 83 84 81 79 80 82 83 80 77 76 75 71 67 65 63 60 58 52 44 38 29 21 14 9 6 2 358 355 352 350 347 345 344 343 342 340 337 336 335 333 331 328 324 320 315 312 309 307 308 308 310 312 294 276 289 302 308 314 309 302 307 308 300 295 294 295 296 291 287 299 305 300 294 296 303
92 91 90 89 88 87 86 86 86 84 82 80 81 83 85 86 84 81 81 79 74 72 72 69 65 61 57 55 53 47 39 32 25 18 11 6 3 359 356 354 350 348 346 344 343 341 338 336 336 336 334 331 329 326 322 319 315 311 307 306 306 304 306 309 297 286 297 310 314 315 308 305 310 307 297 292 291 291 289 281 293 307 303 295 306 312 307
87 86 86 86 86 85 85 85 85 84 83 82 81 82 82 82 82 78 77 77 72 69 67 64 60 56 52 48 44 40 34 27 20 14 9 4 0 356 355 353 349 347 345 343 340 337 335 334 336 336 333 330 328 325 322 318 315 311 307 304 304 304 306 310 304 296 305 316 318 315 314 314 311 304 296 291 288 288 287 288 303 311 296 293 309 314 307
86 85 86 85 85 85 84 83 83 81 80 78 77 77 76 75 75 72 70 70 68 64 61 58 55 51 46 42 37 34 29 22 16 10 5 2 358 354 353 351 348 347 345 341 338 336 334 333 334 334 332 330 328 324 321 319 316 312 308 305 304 305 307 310 308 305 312 323 324 318 320 318 312 306 298 290 287 286 286 297 309 310 300 302 310 309 307
87 86 85 85 84 84 82 81 79 77 75 74 71 70 68 67 67 64 61 60 60 58 55 52 49 46 43 38 32 28 23 18 13 7 2 359 356 354 351 349 348 346 343 340 337 336 333 330 331 331 330 329 328 324 320 319 316 312 309 305 303 306 307 310 312 310 316 328 325 315 320 319 313 309 299 289 291 288 284 297 309 311 311 315 315 309 309
86 85 84 82 80 80 78 77 76 74 72 70 66 65 63 60 60 58 53 52 53 52 49 47 43 39 37 33 27 24 19 14 11 5 360 357 355 353 350 348 346 344 342 340 337 335 333 329 329 329 328 328 328 323 319 317 313 309 307 302 302 306 305 310 317 313 316 325 322 318 325 322 312 311 308 301 299 291 287 295 305 313 318 319 316 312 313
87 85 83 81 78 76 74 73 72 71 69 67 63 60 57 55 54 52 48 45 46 47 43 40 38 34 31 27 23 19 15 12 8 3 359 356 355 353 349 347 344 343 342 341 338 336 333 330 329 329 329 328 328 324 320 318 313 308 306 302 302 303 304 312 319 311 313 323 324 324 328 320 305 314 316 308 300 290 288 294 305 318 323 320 314 313 315
87 86 84 82 79 76 73 70 68 65 64 63 60 56 53 50 48 47 45 41 41 42 39 35 33 30 27 22 18 15 12 9 6 1 358 356 354 352 349 346 343 343 342 340 338 336 334 332 332 331 332 330 329 328 325 321 316 310 306 302 300 302 306 313 317 309 312 323 327 327 329 316 309 318 312 302 299 295 294 300 311 321 325 320 314 315 316
82 80 79 77 76 74 73 69 65 61 57 55 55 53 48 46 44 43 41 38 36 35 34 32 29 26 23 19 15 11 8 7 4 360 357 355 353 350 348 346 344 343 342 340 339 338 335 334 334 334 335 334 332 332 330 326 322 315 309 303 300 304 309 314 318 313 312 322 330 333 330 318 315 313 306 302 301 297 299 305 315 324 325 319 318 319 317
75 74 71 70 69 67 67 66 62 59 53 48 49 49 44 41 41 40 37 35 33 30 28 27 24 22 20 17 14 9 5 4 1 359 356 353 352 350 348 346 345 343 343 342 341 340 337 336 337 338 339 338 334 334 334 330 326 320 314 308 302 305 310 315 319 317 314 321 330 322 313 315 310 302 304 308 304 304 309 313 319 325 325 319 319 319 317
71 70 68 66 65 62 60 58 56 53 48 42 41 43 40 36 36 36 33 31 30 27 23 21 19 18 17 15 13 9 5 3 359 357 355 351 351 350 348 347 345 344 344 344 342 341 340 340 340 341 341 340 337 334 333 331 327 323 319 313 308 309 313 316 318 316 313 316 316 311 314 316 303 296 309 314 310 315 319 318 319 324 325 321 319 319 320
67 66 64 62 60 57 53 50 46 43 41 36 35 36 35 32 30 31 30 28 26 24 20 17 15 14 13 12 11 8 6 3 358 356 355 352 350 350 348 347 346 345 346 345 343 343 343 341 341 339 337 338 333 327 326 327 326 323 320 316 313 312 313 314 311 310 312 314 314 316 320 320 308 310 317 318 316 319 319 316 316 322 327 325 324 324 326
62 60 57 53 49 46 43 39 36 33 31 30 29 28 28 26 25 25 26 24 22 20 17 14 13 12 10 9 9 8 6 3 358 356 355 354 351 350 348 347 347 346 347 345 344 343 343 342 341 336 330 329 325 320 321 324 323 321 320 318 316 315 315 314 310 309 312 311 305 302 302 306 313 318 321 321 320 320 319 315 314 321 325 326 327 329 329
52 48 45 40 36 32 30 27 26 25 24 23 21 20 20 20 19 18 20 20 19 17 14 13 13 11 8 7 7 6 5 3 359 356 355 354 352 350 349 348 347 347 347 346 344 343 343 342 339 332 327 327 324 318 320 322 318 317 318 319 319 319 317 314 311 310 311 305 295 295 300 304 312 320 323 323 322 323 321 314 314 322 326 328 329 329 329
40 35 32 29 26 23 22 21 20 20 19 17 15 13 13 14 13 13 16 17 14 12 12 13 13 10 7 6 6 5 5 3 360 357 354 353 352 350 349 349 348 347 346 346 345 343 343 343 338 330 326 329 328 321 319 321 318 317 318 319 320 320 315 312 311 311 312 306 297 300 308 314 320 323 324 323 325 327 323 314 317 322 326 329 330 330 331
29 24 21 19 18 17 18 19 19 16 13 11 12 9 6 8 9 9 11 13 10 7 9 11 11 10 7 6 6 4 3 2 360 358 356 354 352 351 349 348 348 346 345 347 346 344 343 341 337 330 326 329 330 322 318 319 319 320 321 320 320 319 315 314 314 310 309 308 304 305 314 323 326 325 324 325 328 326 320 317 320 324 328 330 331 331 331
18 16 15 13 13 14 14 13 11 8 6 7 8 5 1 4 7 6 8 9 5 4 8 10 9 9 8 7 6 4 2 2 0 358 356 355 353 351 350 349 348 347 347 347 346 344 341 337 336 332 327 327 327 323 320 320 321 323 324 322 321 319 316 316 316 312 312 313 310 308 318 325 326 326 327 328 325 319 315 317 321 326 330 331 330 331 332
14 11 10 10 9 8 6 3 1 359 0 3 3 0 359 1 3 4 5 5 1 2 6 7 7 8 8 7 6 3 1 1 1 359 357 355 354 352 351 350 349 347 346 344 343 341 337 334 334 331 327 326 326 324 321 320 321 325 328 325 323 322 320 318 317 317 315 312 310 318 323 325 327 328 328 326 323 319 318 320 324 329 332 331 330 332 334
6 3 0 359 358 356 354 352 351 352 355 357 357 358 359 0 1 2 1 359 360 1 3 5 6 7 8 8 5 3 2 1 0 359 358 356 355 353 351 350 349 348 345 343 342 339 335 332 332 331 329 329 328 324 321 321 322 326 329 328 325 325 326 322 319 319 315 309 315 325 326 326 327 328 327 327 325 323 323 325 327 330 332 332 332 333 334
349 347 345 344 345 346 346 345 346 348 351 353 356 359 359 358 358 358 357 357 359 360 1 4 6 6 7 7 3 2 3 2 360 359 358 356 355 354 352 351 351 350 348 344 342 340 335 333 332 331 330 330 328 327 327 327 325 324 326 326 325 326 328 325 323 323 318 315 324 330 327 325 328 328 328 327 326 325 326 327 328 330 332 333 333 334 335
339 338 338 338 340 342 343 343 345 348 350 353 357 357 356 355 355 355 356 357 357 358 0 3 5 6 7 5 3 3 3 1 360 359 358 356 355 354 353 353 352 352 350 347 345 342 339 336 335 333 333 332 330 330 330 326 323 324 327 329 329 329 330 327 327 326 321 323 331 331 324 325 328 328 328 329 327 326 326 327 328 330 332 333 335 335 335
333 333 332 333 337 339 341 342 345 348 351 353 354 353 353 354 354 354 355 355 355 358 1 2 4 5 6 4 3 4 3 1 360 359 358 356 355 355 354 354 353 353 352 349 347 345 342 340 339 338 337 335 334 335 333 328 326 328 331 334 334 332 330 329 329 327 325 327 331 329 324 326 329 330 330 330 327 326 327 327 329 331 333 334 335 335 335
327 328 328 330 334 337 340 343 347 350 351 351 351 352 353 352 350 351 353 354 355 359 1 2 3 4 4 3 3 3 2 0 0 360 358 356 356 355 355 355 354 354 353 351 349 347 345 344 343 341 340 337 335 337 338 335 333 332 334 339 339 335 333 333 331 328 328 330 331 327 326 329 334 334 331 329 328 327 328 329 331 333 335 335 334 334 336
323 324 325 328 333 337 341 345 347 349 350 349 350 350 350 348 348 350 353 354 358 1 1 1 3 3 2 3 3 3 2 1 1 359 357 356 356 355 356 356 355 354 354 352 351 349 348 349 348 346 343 340 338 340 342 342 343 342 343 346 345 339 336 336 333 330 331 331 329 326 325 328 334 335 332 331 331 329 328 331 334 335 335 334 334 336 338
318 321 325 328 334 340 342 344 345 347 347 346 347 347 347 345 346 349 352 355 358 0 1 2 3 2 2 2 2 1 1 1 360 359 357 356 356 356 356 356 355 355 355 354 353 353 353 353 351 349 346 343 342 344 347 347 348 349 348 348 345 341 338 337 334 332 330 329 329 328 327 329 332 334 333 333 333 331 331 334 335 334 334 335 336 337 338
317 322 327 332 337 342 341 339 340 342 341 342 344 345 343 342 345 348 352 355 357 359 2 4 4 2 2 2 1 1 1 360 359 358 357 356 356 356 357 356 356 356 356 356 356 355 354 354 353 350 347 346 347 348 350 351 351 350 348 344 341 338 337 337 335 332 331 331 332 331 331 332 334 334 334 335 335 334 334 335 335 334 336 337 337 337 337
324 329 333 336 339 339 336 334 335 336 337 340 341 339 338 339 343 348 351 354 357 0 3 5 4 2 1 1 1 1 0 359 358 358 357 356 356 357 357 357 356 357 357 358 358 357 355 354 354 351 349 350 351 350 350 350 350 347 343 339 338 337 336 336 335 333 333 333 333 332 334 336 336 336 337 338 337 336 335 335 335 337 337 337 337 336 335
333 336 336 336 335 332 329 329 331 332 333 334 334 334 335 339 343 347 350 353 358 2 5 5 4 3 1 0 0 0 359 358 358 358 357 357 357 358 357 357 357 357 357 358 359 358 356 354 354 354 352 352 352 352 350 348 346 344 342 339 338 336 335 336 337 336 335 335 335 336 339 340 339 338 339 339 339 337 336 336 338 338 337 337 336 335 334
337 336 333 331 327 324 324 324 326 327 327 328 330 332 335 339 342 346 350 354 359 3 5 5 6 5 2 360 359 359 359 358 357 357 357 358 358 358 357 356 356 356 357 359 360 359 357 356 355 355 354 352 352 352 350 347 345 345 343 338 335 335 336 338 340 339 338 339 339 339 340 342 341 340 340 340 340 339 338 339 339 338 337 335 335 335 335
342 339 335 331 327 324 324 324 325 326 327 329 331 332 335 340 344 347 351 355 360 2 4 5 6 6 3 359 358 358 358 357 356 356 357 358 358 358 357 356 355 356 357 359 359 359 357 356 356 356 354 352 352 352 350 349 348 344 340 336 335 337 339 341 342 341 341 343 343 341 340 341 342 341 340 340 341 341 340 339 339 338 336 336 336 337 337
351 346 342 338 335 333 332 332 332 332 332 332 333 336 339 343 347 351 354 357 358 360 3 5 4 3 0 358 358 358 357 357 357 357 357 357 357 357 356 355 355 356 356 357 358 358 356 356 357 356 354 353 354 353 351 350 347 341 337 337 339 341 341 341 342 342 344 345 345 343 341 340 341 341 342 342 341 341 340 340 339 338 337 337 338 338 338
358 355 352 349 346 344 342 341 340 339 338 338 340 342 345 348 351 354 356 357 357 358 0 2 1 359 357 357 358 358 357 357 357 357 357 356 355 355 355 355 355 356 356 357 357 357 356 357 356 355 354 354 354 353 350 346 342 340 340 341 342 343 343 342 343 344 345 346 346 344 343 343 342 343 342 342 342 341 341 340 340 338 337 338 339 340 339
0 359 358 356 354 351 348 346 345 343 343 345 346 347 351 354 354 355 356 356 356 357 358 358 359 358 356 357 357 356 356 357 357 356 355 355 355 354 354 355 355 357 357 356 355 355 356 357 355 353 353 354 353 351 347 343 341 341 343 344 345 345 345 344 343 344 346 347 347 345 344 344 344 343 342 342 342 341 341 341 340 339 339 340 341 341 340
358 358 357 356 354 352 350 349 348 347 348 350 352 355 358 357 355 355 355 353 353 355 356 356 357 357 357 356 355 354 355 356 356 355 354 354 354 354 354 354 355 356 357 355 354 354 356 356 354 352 352 352 350 347 344 342 341 343 345 346 346 346 345 344 344 344 345 346 346 345 344 344 344 343 343 342 342 342 341 341 341 340 340 341 341 341 340
354 354 354 354 352 351 351 351 351 352 355 359 0 360 360 358 356 354 352 351 351 353 354 354 354 356 356 355 354 353 354 355 354 353 353 354 354 354 354 355 354 354 354 354 354 354 354 354 353 351 350 349 346 344 344 344 344 344 346 347 347 346 345 345 345 345 345 346 346 346 345 344 343 343 343 342 342 342 342 341 342 342 342 342 342 341 340
352 351 350 351 351 351 351 353 356 359 2 4 4 2 360 359 357 354 352 352 352 351 352 353 354 355 355 354 353 352 352 352 353 353 352 354 355 354 354 353 352 352 353 353 352 352 352 352 351 349 348 347 344 343 344 345 345 345 346 347 346 345 345 346 346 346 345 346 345 345 344 343 343 343 343 342 342 342 342 342 343 344 344 343 342 341 341
350 348 348 349 350 351 353 355 360 3 4 4 5 3 0 359 358 356 353 353 352 352 352 352 353 353 353 352 352 351 350 350 352 352 353 354 355 354 353 351 351 351 352 350 350 350 349 349 348 347 346 345 343 342 343 344 344 345 345 345 345 345 345 346 347 346 345 345 345 345 344 344 343 343 342 342 342 342 343 344 345 345 344 343 343 342 343
346 345 345 347 349 351 354 358 1 3 5 6 4 2 360 359 359 357 355 354 353 352 351 350 350 351 351 351 350 350 350 349 349 351 352 353 353 354 353 351 351 352 349 346 347 348 347 346 346 345 345 344 343 342 342 343 343 344 345 344 344 345 346 346 347 346 345 345 345 345 345 345 345 344 343 342 343 344 344 345 345 345 344 344 344 344 344
343 341 341 344 347 350 354 359 2 3 5 4 1 360 360 359 358 356 354 354 352 350 348 347 348 349 350 350 349 348 348 348 349 350 351 352 352 352 352 352 352 350 346 343 344 345 345 344 343 343 343 344 343 342 341 342 343 344 344 343 344 345 345 346 346 346 345 345 345 345 345 346 346 344 343 343 344 346 346 346 345 345 345 345 345 345 345
339 337 337 340 344 348 352 357 0 2 1 357 355 357 358 356 355 354 353 352 350 348 346 346 347 347 347 347 347 347 347 348 348 349 350 351 350 350 351 351 349 346 343 343 344 344 343 342 341 341 343 343 342 341 341 342 342 342 343 343 344 345 345 345 345 346 346 346 346 346 346 346 345 345 345 345 345 347 348 347 346 346 346 347 347 347 346
336 335 335 336 339 343 348 354 357 357 355 352 352 354 355 353 352 352 351 349 348 346 345 345 345 345 346 345 346 347 347 347 348 349 349 349 349 349 348 346 344 343 343 343 343 344 343 340 339 341 342 341 340 340 341 342 342 341 342 343 344 344 344 345 345 346 346 346 346 347 347 346 345 346 347 347 347 348 348 348 348 348 348 348 349 349 348
335 335 335 334 335 340 346 350 350 350 350 350 351 352 351 350 350 349 348 347 347 345 345 344 344 343 344 345 345 346 347 347 348 348 347 347 348 348 345 343 342 343 344 343 343 343 341 339 339 340 340 340 340 341 341 341 341 341 342 343 343 344 344 345 345 346 346 347 347 347 346 346 346 348 349 349 349 349 349 349 349 349 349 349 350 350 351
338 337 336 334 334 337 343 345 344 344 345 346 347 347 347 347 346 346 346 346 345 344 343 343 342 342 343 345 345 346 347 348 348 347 346 347 347 345 343 343 344 344 343 341 341 340 338 337 338 339 339 339 340 341 341 340 341 341 341 342 343 344 345 345 346 346 347 347 347 347 346 347 347 349 350 351 350 350 350 350 350 349 350 350 351 352 353
341 340 339 338 337 336 338 338 338 339 340 342 342 343 343 343 343 343 344 344 343 342 342 341 340 341 343 345 345 346 348 348 348 346 346 346 345 344 343 343 344 342 339 338 337 336 335 335 337 338 338 338 339 340 340 340 340 341 342 343 343 344 345 345 345 346 347 347 347 347 347 348 349 350 351 351 351 351 351 351 351 351 351 351 352 353 354
346 345 344 342 339 336 335 335 336 337 339 339 339 339 339 340 341 343 343 343 342 341 341 341 341 342 343 345 346 347 348 348 348 347 346 345 344 343 342 340 339 338 336 334 333 333 333 335 337 337 337 337 339 339 338 339 340 341 342 343 343 344 345 345 345 346 347 347 347 347 347 349 350 351 351 352 352 352 352 352 352 352 352 353 353 354 355
352 353 351 347 343 339 337 337 338 338 338 337 337 337 339 340 342 343 343 342 342 341 341 341 342 343 344 346 347 348 348 348 347 345 344 343 342 340 338 336 335 335 334 333 332 332 332 334 335 336 335 336 338 338 338 338 340 342 342 343 343 344 345 345 345 346 347 347 347 347 348 349 350 351 351 352 353 352 352 352 353 354 354 354 354 355 356
358 358 356 352 347 344 341 339 340 339 338 338 339 339 341 343 344 344 344 343 343 342 342 343 344 345 347 348 349 348 346 346 345 343 342 341 339 337 335 334 333 332 332 331 331 330 331 332 334 334 335 336 338 338 338 339 340 342 342 342 343 344 344 344 346 346 346 347 347 348 349 350 351 352 352 353 353 353 352 353 354 355 355 355 355 356 356
359 0 359 355 352 349 347 345 345 344 343 343 344 344 345 346 346 346 346 345 345 345 345 346 347 347 348 349 348 346 343 341 342 342 341 338 336 334 333 332 331 330 329 329 328 328 330 332 333 334 335 336 337 338 338 339 340 341 342 342 343 343 343 344 346 347 347 347 348 348 349 350 352 352 352 352 352 353 353 353 354 356 356 357 357 357 358
358 359 359 357 354 353 352 351 351 351 350 350 351 350 349 349 350 349 349 349 349 349 349 349 350 350 349 347 345 343 340 338 339 340 339 336 334 333 332 331 331 330 329 328 328 328 330 332 333 334 335 336 337 337 339 340 340 340 341 342 342 342 343 344 346 347 347 348 348 349 349 351 352 352 352 352 352 353 354 355 356 356 357 358 358 358 359